STARLINK-1845 (47135 NORAD) Tracking and Keplerian Element Data
This shows tracking and keplerian element data for the satellite.
Feedback or suggestion? Click here.
Element | Value |
Catalog | 47135 |
Name | STARLINK-1845 |
Epoch Orbit | 177 |
Epoch Day | 15.91667824 |
Epoch Year | 2021 |
RAAN | 98.5778 |
Inclination | 53.0549 |
Eccentricity | 0.0001107 |
Argument of Perigee | 344.1345 |
Mean Anonmoly | 48.9069 |
Mean Motion | 15.62733524 |
Decay Rate | -0.00010712 |
L1 | 1 47135U 20088P 21015.91667824 -.00010712 00000-0 -11140-3 0 9993 |
L2 | 2 47135 53.0549 98.5778 0001107 344.1345 48.9069 15.62733524 1774 |
Live tracking and technical data element details for STARLINK-1845 (NORAD 47135). STARLINK-1845 can be tracked NOW for your location showing map with azimuth and elevation plus other details from your city location.
Track the satellite on the map from your city or location and see movement details for azimuth, elevation, latitude, longitude, range, height, and movement on the map or in text.
IsCatalogInMostPopularTable: catalog: 47135, numindb: 15
Update: records affected: 1
GetName: 47135 STARLINK-1845
Hit Count: updated at: Sun, 17 Jan 2021 09:34:26 GMT